Simultaneous Nadir Overpasses (SNOs) Predictions

Prediction of SNOs between GOES-16 and NOAA-20 Satellite Orbit:

Table of predicted SNOs for the next 14.0 days since TLE Epoch: 10/5/2019
Index Date Time (GOES-16) GOES-16 Lat,Lon NOAA-20 Lat,Lon Distance(km) Time Diff (sec)
1 10/05/2019 18:38:39 -0.00, -75.20 -0.78, -78.72 401.29 80
2 10/06/2019 18:22:34 -0.00, -75.21 0.22, -74.19 115.48 80
3 10/08/2019 06:44:23 -0.00, -75.22 0.95, -79.47 484.01 80
4 10/09/2019 06:22:58 -0.00, -75.23 -0.06, -74.93 33.23 80
5 10/11/2019 18:26:11 0.00, -75.26 -0.08, -75.72 52.16 80
6 10/12/2019 18:10:06 -0.00, -75.27 0.93, -71.19 465.81 80
7 10/14/2019 06:31:55 0.00, -75.30 0.24, -76.46 132.02 80
8 10/15/2019 06:10:30 0.01, -75.31 -0.76, -71.93 386.16 80
9 10/16/2019 18:32:27 -0.01, -75.34 -0.43, -77.23 215.74 80
10 10/17/2019 18:16:22 -0.02, -75.36 0.58, -72.70 302.66 80




NCC Satellite Simultaneous Nadir Overpasses (SNOs) Prediction Service
